Miscellaneous Local Product
Issued by NWS North Platte, NE

Home | Current Version | Previous Version | Text Only | Print | Product List | Glossary On
Versions: 1 2 3 4 5 6 7 8 9 10 11 12 13 14 15 16 17 18 19 20 21 22 23 24 25 26 27 28 29 30 31 32 33 34 35 36 37 38 39 40 41 42 43 44 45 46 47 48 49 50
000
AXUS43 KLBF 240010
MISLBF


WESTERN AND NORTH CENTRAL NEBRASKA HOURLY WEATHER ROUNDUP
NATIONAL WEATHER SERVICE NORTH PLATTE NE
700 PM CDT WED APR 23 2014

***STATIONS NOT REPORTING VARIABLES SUCH AS SKY/WEATHER OR
PRESSURE ARE PROVIDED BY THE NEBRASKA DEPARTMENT OF
ROADS...RAWS...AND APRS NETWORKS...AND ARE NOT UNDER
NATIONAL WEATHER SERVICE QUALITY CONTROL***

...OBSERVATIONS IN AND NEAR THE EASTERN PANHANDLE OF NEBRASKA...

CITY           SKY/WX    TMP DP  RH WIND       PRES   REMARKS
PINE RIDGE     CLOUDY    55  39  54 N17       29.68R
CHADRON        CLOUDY    63  32  31 NW9       29.67R
ALLIANCE       CLOUDY    61  15  16 NW15G25   29.67R
SIDNEY         LGT RAIN  57  26  30 NW26G37   29.74R
WHITECLAY        N/A     55  37  52 NE10        N/A
LISCO            N/A     64  11  12 W17         N/A
BIG SPRINGS      N/A     70  27  20 NW12        N/A
LEWELLEN         N/A     71  16  12 W16         N/A
$$

...OBSERVATIONS IN SOUTHWEST NEBRASKA AND FAR NORTHEAST COLORADO...

CITY           SKY/WX    TMP DP  RH WIND       PRES   REMARKS
WRAY           MOCLDY    68  26  20 N28G36    29.61R
HOLYOKE        MOCLDY    64  23  20 N29G40    29.63R
IMPERIAL       PTSUNNY   71  24  17 N26G36    29.54F
OGALLALA       CLOUDY    68  19  15 N21       29.61S
NORTH PLATTE   PTSUNNY   70  31  23 N18       29.52F
MCCOOK         MOSUNNY   76  39  26 N16       29.47S
LEXINGTON      MOSUNNY   77  38  24 N18       29.47F
PAXTON           N/A     75  30  19 N9          N/A
SUTHERLAND       N/A     76  22  13 W20         N/A
GOTHENBURG       N/A     77  34  21 NE9G18      N/A
CALLAWAY         N/A     77  36  23 N16         N/A
$$

...OBSERVATIONS IN NORTH CENTRAL NEBRASKA...

CITY           SKY/WX    TMP DP  RH WIND       PRES   REMARKS
VALENTINE      MOSUNNY   68  44  42 NW30G39   29.58R
THEDFORD       SUNNY     73  20  13 NW16G23   29.58F
AINSWORTH      SUNNY     74  22  14 W21G26    29.56S
O`NEILL        MOSUNNY   76  39  25 NW18      29.52R
ORD            MOSUNNY   80  32  17 N15       29.47F
BROKEN BOW     SUNNY     75  29  18 N21       29.51F
BROWNLEE         N/A     73  24  16 NW20        N/A
SPRINGVIEW       N/A     77  34  21 W8G18       N/A
DUNNING          N/A     73  18  12 S16         N/A
BREWSTER         N/A     74  24  15 N16         N/A
ROSE             N/A     77  37  23 SW10        N/A
NEWPORT          N/A     77  39  25 NW12        N/A
COMSTOCK         N/A     85  31  14 NW15        N/A
CHAMBERS         N/A     79  46  30 N12         N/A
EWING            N/A     65  53  65 SE3G12      N/A
$$

...SOME WEATHER OBSERVATIONS FROM AROUND THE REGION...

CITY           SKY/WX    TMP DP  RH WIND       PRES   REMARKS
DENVER         HAIL      51  39  63 NE22G30   29.69R
LARAMIE        CLOUDY    46  13  26 W20G33    29.82R
CHEYENNE       CLOUDY    50  18  28 NW25G39   29.74R
SCOTTSBLUFF    CLOUDY    61  13  15 W16       29.69R
RAPID CITY     PTSUNNY   57  36  45 N25G37    29.65R
PIERRE         MOSUNNY   60  42  51 NW32G45   29.58R
WINNER         PTSUNNY   74  37  26 NW14      29.54R
SIOUX FALLS    PTSUNNY   59  41  51 SE23G38   29.64R
OMAHA          CLOUDY    56  44  64 SE25G39   29.63F
GRAND ISLAND   TSTM      65  56  72 SE17      29.48F
KANSAS CITY    PTSUNNY   71  42  35 SE21      29.72F
WICHITA        CLOUDY    81  47  30 S26G35    29.59F
HAYS           CLOUDY   N/A N/A N/A S38G49    29.46F
LIBERAL        MOSUNNY   79  55  44 S24       29.51F
GOODLAND       PTSUNNY   73  39  29 N16       29.51S
$$



USA.gov is the U.S. government's official web portal to all federal, state and local government web resources and services.